Quebec, Quebec

6:52 AM EDT on July 23, 2017 (GMT -0400)
Quebec

Weather History for CYQB - January, 2013

Change the Weather History Date:

Tuesday, January 8, 2013

  Actual Average Record
Temperature  
Mean Temperature 10 °F -  
Max Temperature 33 °F 19 °F 41 °F (2008)
Min Temperature -12 °F 2 °F -23 °F (2015)
Degree Days  
Heating Degree Days 54    
Moisture  
Dew Point 19 °F    
Average Humidity 82    
Maximum Humidity 93    
Minimum Humidity 77    
Precipitation  
Precipitation 0.00 in 0.11 in - ()
Sea Level Pressure  
Sea Level Pressure 30.16 in    
Wind  
Wind Speed 8 mph ()    
Max Wind Speed 22 mph    
Max Gust Speed 32 mph    
Visibility 6.9 miles    
Events Snow    
Averages and records for this station are not official NWS values.
T = Trace of Precipitation, MM = Missing Value Source: Averaged Metar Reports

Daily Weather History Graph

Daily Weather History Graph

Search for Another Location

Airport or City:

Trip Planner

Search our weather history database for the weather conditions in past years. The results will help you decide how hot, cold, wet, or windy it might be!

Date:

Astronomy

Jan. 08, 2013 Rise Set
Actual Time 7:29 AM EST 4:15 PM EST
Civil Twilight 6:54 AM EST 4:50 PM EST
Nautical Twilight 6:16 AM EST 5:28 PM EST
Astronomical Twilight 5:40 AM EST 6:05 PM EST
Moon 3:57 AM EST (1/8) 1:15 PM EST (1/8)
Length of Visible Light 9h 55m
Length of Day
8h 46m
Waning Crescent, 14% of the Moon is Illuminated
Jan 8
Waning Crescent
Jan 11
New
Jan 18
First Quarter
Jan 26
Full
Feb 3
Last Quarter

Hourly Weather History & Observations

Time (EST) Temp. Windchill Dew Point Humidity Pressure Visibility Wind Dir Wind Speed Gust Speed Precip Events Conditions
12:00 AM 5.0 °F -5.6 °F -0.4 °F 78% 30.18 in 6.0 mi North 5.8 mph - N/A Snow Light Snow
1:00 AM 7 °F - 5 °F 86% 30.14 in - North 1.2 mph - -  
1:00 AM 6.8 °F -0.1 °F 1.4 °F 79% 30.14 in 6.0 mi North 3.5 mph - N/A Snow Light Snow
2:00 AM 8.6 °F 0.1 °F 3.2 °F 79% 30.12 in 6.0 mi NNE 4.6 mph - N/A Snow Light Snow
3:00 AM 10.4 °F 4.0 °F 6.8 °F 85% 30.11 in 8.0 mi North 3.5 mph - N/A Snow Light Snow
4:00 AM 12 °F - 9 °F 82% 30.09 in - South 4.6 mph - -  
4:00 AM 10.4 °F 2.2 °F 6.8 °F 85% 30.09 in 8.0 mi South 4.6 mph - N/A Snow Light Snow
5:00 AM 12.2 °F - 8.6 °F 85% 30.09 in 10.0 mi Calm Calm - N/A Snow Light Snow
6:00 AM 17.6 °F 7.3 °F 14.0 °F 86% 30.08 in 12.0 mi SW 8.1 mph - N/A Snow Light Snow
7:00 AM 20 °F - 17 °F 82% 30.09 in - WSW 3.5 mph - -  
7:00 AM 19.4 °F 10.4 °F 15.8 °F 86% 30.10 in 12.0 mi WSW 6.9 mph - N/A Snow Light Snow
8:00 AM 19.4 °F 10.4 °F 17.6 °F 93% 30.11 in 8.0 mi WSW 6.9 mph - N/A   Overcast
9:00 AM 21.2 °F 10.9 °F 17.6 °F 86% 30.12 in 4.0 mi WSW 9.2 mph - N/A Snow Light Snow
10:00 AM 24 °F - 21 °F 81% 30.11 in - WSW 6.9 mph - -  
10:00 AM 23.0 °F 11.7 °F 19.4 °F 86% 30.11 in 4.0 mi WSW 11.5 mph - N/A Snow Light Snow
11:00 AM 26.6 °F 14.3 °F 23.0 °F 86% 30.11 in 5.0 mi WSW 16.1 mph - N/A Snow Light Snow
11:52 AM 28.4 °F 17.0 °F - N/A% - 6.0 mi West 15.0 mph - N/A   Overcast
12:00 PM 28.4 °F 17.0 °F 23.0 °F 80% 30.11 in 6.0 mi West 15.0 mph - N/A   Overcast
1:00 PM 31 °F - 27 °F 78% 30.10 in - WSW 8.1 mph - -  
1:00 PM 32.0 °F 22.1 °F 26.6 °F 80% 30.11 in 8.0 mi WSW 13.8 mph - N/A   Overcast
2:00 PM 32.0 °F 19.5 °F 26.6 °F 80% 30.12 in 8.0 mi WSW 21.9 mph 32.2 mph N/A   Overcast
3:00 PM 32.0 °F 19.5 °F 26.6 °F 80% 30.16 in 5.0 mi WSW 21.9 mph - N/A   Overcast
4:00 PM 32.0 °F 20.5 °F 26.6 °F 80% 30.19 in 3.0 mi WSW 18.4 mph - N/A   Overcast
5:00 PM 32.0 °F 20.8 °F 26.6 °F 80% 30.20 in 5.0 mi WSW 17.3 mph - N/A Snow Light Snow Showers
6:00 PM 33.8 °F 23.2 °F 28.4 °F 81% 30.22 in 10.0 mi WSW 17.3 mph 23.0 mph N/A Snow Light Snow Showers
7:00 PM 33 °F - 28 °F 77% 30.24 in - WSW 11.5 mph - -  
7:00 PM 32.0 °F 21.6 °F 26.6 °F 80% 30.24 in 8.0 mi WSW 15.0 mph - N/A   Mostly Cloudy
8:00 PM 32.0 °F 22.5 °F 26.6 °F 80% 30.27 in 5.0 mi West 12.7 mph - N/A   Mostly Cloudy
9:00 PM 30.2 °F 18.1 °F 26.6 °F 86% 30.27 in 6.0 mi West 18.4 mph 24.2 mph N/A   Mostly Cloudy
10:00 PM 32 °F - 29 °F 83% 30.29 in - WSW 6.9 mph - -  
10:00 PM 32.0 °F 23.6 °F 26.6 °F 80% 30.29 in 6.0 mi WSW 10.4 mph - N/A   Haze
11:00 PM 32.0 °F 23.0 °F 26.6 °F 80% 30.30 in 8.0 mi SW 11.5 mph - N/A   Overcast